Erzurum, Turkey

6:01 PM +03 on May 27, 2017 (GMT +0300)
Erzurum

Weather History for LTCE - September, 2013

Change the Weather History Date:

Friday, September 6, 2013

  Actual Average Record
Temperature  
Mean Temperature 52 °F -  
Max Temperature 73 °F 69 °F 87 °F (2007)
Min Temperature 30 °F 43 °F 28 °F (1997)
Degree Days  
Heating Degree Days 14    
Growing Degree Days 2 (Base 50)    
Moisture  
Dew Point 30 °F    
Average Humidity 47    
Maximum Humidity 93    
Minimum Humidity 15    
Precipitation  
Precipitation 0.00 in 0.03 in - ()
Sea Level Pressure  
Sea Level Pressure 30.04 in    
Wind  
Wind Speed 4 mph ()    
Max Wind Speed 20 mph    
Max Gust Speed 22 mph    
Visibility 12.0 miles    
Events      
Averages and records for this station are not official NWS values.
T = Trace of Precipitation, MM = Missing Value Source: Averaged Metar Reports

Daily Weather History Graph

Daily Weather History Graph

Search for Another Location

Airport or City:

Trip Planner

Search our weather history database for the weather conditions in past years. The results will help you decide how hot, cold, wet, or windy it might be!

Date:

Astronomy

Sep. 06, 2013 Rise Set
Actual Time 5:47 AM EEST 6:38 PM EEST
Civil Twilight 5:20 AM EEST 7:06 PM EEST
Nautical Twilight 4:47 AM EEST 7:38 PM EEST
Astronomical Twilight 4:13 AM EEST 8:12 PM EEST
Moon 6:37 AM EEST (9/6) 6:51 PM EEST (9/6)
Length of Visible Light 13h 46m
Length of Day
12h 51m
New Moon, 1% of the Moon is Illuminated
Sep 6
New Moon
Sep 12
First Quarter
Sep 19
Full
Sep 27
Last Quarter
Oct 5
New

Hourly Weather History & Observations

Time (EEST) Temp. Windchill Dew Point Humidity Pressure Visibility Wind Dir Wind Speed Gust Speed Precip Events Conditions
12:20 AM 39.2 °F - 30.2 °F 70% 30.06 in - Calm Calm - N/A   Clear
12:50 AM 41.0 °F - 32.0 °F 70% 30.06 in - Calm Calm - N/A   Clear
1:20 AM 42.8 °F 41.1 °F 33.8 °F 70% 30.06 in - NNW 3.5 mph - N/A   Clear
1:50 AM 42.8 °F 40.1 °F 35.6 °F 76% 30.06 in - NNE 4.6 mph - N/A   Clear
2:20 AM 41.0 °F 37.1 °F 35.6 °F 81% 30.06 in - ENE 5.8 mph - N/A   Clear
2:50 AM 33.8 °F - 30.2 °F 87% 30.06 in - Variable 2.3 mph - N/A   Clear
3:00 AM 35 °F - 31 °F 79%  in 12 mi NW 2.3 mph - -  
3:20 AM 33.8 °F - 30.2 °F 87% 30.06 in - Variable 2.3 mph - N/A   Clear
3:50 AM 32.0 °F - 30.2 °F 93% 30.06 in - Calm Calm - N/A   Clear
4:20 AM 32.0 °F - 30.2 °F 93% 30.06 in - Calm Calm - N/A   Clear
4:50 AM 32.0 °F 28.7 °F 30.2 °F 93% 30.06 in - WSW 3.5 mph - N/A   Clear
5:20 AM 32.0 °F 27.5 °F 28.4 °F 87% 30.06 in - West 4.6 mph - N/A   Clear
5:50 AM 32.0 °F - 28.4 °F 87% 30.06 in - WSW 2.3 mph - N/A   Clear
6:20 AM 32.0 °F - 30.2 °F 93% 30.06 in - Calm Calm - N/A   Clear
6:50 AM 35.6 °F - 32.0 °F 87% 30.06 in - Calm Calm - N/A   Clear
7:20 AM 42.8 °F - 33.8 °F 70% 30.09 in - Calm Calm - N/A   Clear
7:50 AM 46.4 °F - 35.6 °F 66% 30.09 in - Variable 1.2 mph - N/A   Clear
8:20 AM 48.2 °F - 35.6 °F 62% 30.06 in - NE 5.8 mph - N/A   Clear
8:50 AM 50.0 °F - 35.6 °F 58% 30.06 in - ENE 5.8 mph - N/A   Clear
9:00 AM 51 °F - 36 °F 44%  in 12 mi ENE 5.8 mph - -  
9:20 AM 53.6 °F - 33.8 °F 47% 30.06 in - ENE 6.9 mph - N/A   Clear
9:50 AM 55.4 °F - 35.6 °F 47% 30.06 in - East 8.1 mph - N/A   Clear
10:20 AM 57.2 °F - 33.8 °F 41% 30.06 in - ENE 9.2 mph - N/A   Clear
10:50 AM 60.8 °F - 33.8 °F 36% 30.04 in - East 5.8 mph - N/A   Clear
11:20 AM 60.8 °F - 33.8 °F 36% 30.04 in - Variable 5.8 mph - N/A   Clear
11:50 AM 62.6 °F - 33.8 °F 34% 30.04 in - ESE 6.9 mph - N/A   Clear
12:20 PM 64.4 °F - 33.8 °F 32% 30.01 in - Variable 4.6 mph - N/A   Clear
12:50 PM 68.0 °F - 33.8 °F 28% 30.01 in - NE 5.8 mph - N/A   Clear
1:20 PM 68.0 °F - 33.8 °F 28% 30.01 in - East 5.8 mph - N/A   Clear
1:50 PM 69.8 °F - 33.8 °F 27% 29.98 in - Variable 6.9 mph - N/A   Clear
2:20 PM 71.6 °F - 32.0 °F 23% 29.98 in - Variable 4.6 mph - N/A   Clear
2:50 PM 71.6 °F - 32.0 °F 23% 29.95 in - NW 10.4 mph 21.9 mph N/A   Clear
3:00 PM 71 °F - 33 °F 15%  in 12 mi NW 10.4 mph - -  
3:20 PM 71.6 °F - 32.0 °F 23% 29.95 in - NW 8.1 mph - N/A   Clear
3:50 PM 73.4 °F - 32.0 °F 22% 29.95 in - WNW 6.9 mph - N/A   Clear
4:20 PM 71.6 °F - 30.2 °F 22% 29.95 in - West 13.8 mph - N/A   Clear
4:50 PM 73.4 °F - 26.6 °F 18% 29.98 in - West 16.1 mph - N/A   Clear
5:20 PM 71.6 °F - 24.8 °F 17% 29.98 in - West 19.6 mph - N/A   Clear
5:50 PM 69.8 °F - 24.8 °F 18% 29.98 in - West 17.3 mph - N/A   Clear
6:20 PM 68.0 °F - 26.6 °F 21% 29.98 in - West 16.1 mph - N/A   Clear
6:50 PM 64.4 °F - 26.6 °F 24% 30.01 in - West 12.7 mph - N/A   Clear
7:20 PM 60.8 °F - 26.6 °F 27% 30.01 in - West 10.4 mph - N/A   Clear
7:50 PM 59.0 °F - 26.6 °F 29% 30.04 in - West 8.1 mph - N/A   Clear
8:20 PM 55.4 °F - 26.6 °F 33% 30.04 in - WSW 4.6 mph - N/A   Clear
8:50 PM 53.6 °F - 26.6 °F 35% 30.06 in - WSW 3.5 mph - N/A   Clear
9:00 PM 54 °F - 26 °F 21%  in 12 mi SW 3.5 mph - -  
9:20 PM 55.4 °F - 23.0 °F 29% 30.06 in - SSW 4.6 mph - N/A   Clear
9:50 PM 55.4 °F - 23.0 °F 29% 30.06 in - SW 5.8 mph - N/A   Clear
10:20 PM 51.8 °F - 23.0 °F 33% 30.09 in - SW 4.6 mph - N/A   Clear
10:50 PM 51.8 °F - 21.2 °F 30% 30.09 in - SE 2.3 mph - N/A   Clear
11:20 PM 51.8 °F - 23.0 °F 33% 30.09 in - SSW 2.3 mph - N/A   Clear
11:50 PM 53.6 °F - 24.8 °F 33% 30.09 in - SSW 4.6 mph - N/A   Clear